Temp
91 90 89 85 85 85 84 82 83 84 82 82 83 85 82 84 84 82 82 84 83 84 86 84 83 86 90 91 90 90 90 90 86 91 94 93 87 88 91 93 93 93 93
90 89 88 87 87 89 87 87 87 86 88 87 85 84 84 83 83 82 82 84 82 81 82 83 84 86 84 86 88 86 86 89 87 82 89 91 88 89 89 88 92 97 97
90 90 87 86 89 88 88 88 87 86 86 88 86 84 84 84 83 83 79 79 80 80 81 81 82 82 80 80 81 81 82 82 81 81 84 86 89 92 89 89 89 90 95
91 91 87 88 87 87 86 86 86 85 84 85 85 85 85 85 85 85 85 84 85 86 82 82 83 82 80 80 79 79 79 78 78 76 76 78 80 81 80 78 80 79 83
87 87 85 86 86 85 83 83 84 84 83 83 84 84 85 87 84 81 84 84 83 84 85 85 85 77 71 71 82 81 79 79 77 76 77 80 82 83 76 79 77 82 81
83 82 82 82 82 81 81 81 80 81 80 81 81 81 82 86 66 68 73 83 82 81 82 83 83 77 77 71 70 70 72 78 79 82 84 84 82 84 88 86 86 85 83
79 79 80 80 79 79 79 79 78 78 78 78 79 80 77 77 64 66 69 84 82 81 80 80 82 86 79 81 74 71 70 69 68 77 77 79 79 81 81 79 80 81 81
77 79 79 79 79 78 78 77 76 77 76 77 77 77 76 69 60 61 65 79 81 78 78 78 77 75 69 70 75 79 80 79 80 82 80 80 80 77 78 79 77 77 81
75 75 73 76 77 77 77 76 76 76 75 76 75 74 73 70 58 59 65 77 78 76 79 77 74 69 58 60 70 73 73 76 75 68 68 66 66 65 67 77 78 79 80
67 68 70 72 70 73 75 74 75 76 76 77 74 73 63 71 55 57 61 77 76 78 77 76 60 64 57 56 68 72 72 76 76 77 78 75 69 74 65 75 79 77 79
73 72 71 70 68 68 72 74 74 75 72 71 71 71 70 65 65 56 56 70 74 76 78 79 75 57 55 56 57 70 66 66 72 75 77 78 74 73 73 72 71 71 74
72 66 63 64 65 66 68 72 71 71 68 67 68 71 73 71 54 55 55 56 58 72 73 75 69 55 54 55 62 56 57 60 74 74 73 73 73 73 77 76 74 77 75
71 67 63 63 65 66 69 70 71 70 71 71 74 76 75 75 74 57 56 57 58 68 71 60 57 55 57 57 58 58 59 74 74 74 73 72 73 74 72 73 74 75 75
72 70 67 67 68 69 71 71 73 75 76 76 75 75 75 75 75 75 75 72 60 65 61 69 64 61 54 62 66 68 73 71 70 70 69 71 73 73 73 73 72 72 71
70 66 67 67 66 68 73 74 77 76 73 76 75 75 75 73 66 55 56 67 67 61 60 74 75 74 74 73 73 72 72 73 71 72 70 69 71 71 71 71 70 69 68
66 64 63 63 68 68 68 68 49 53 53 52 52 62 65 54 50 48 48 48 49 50 67 73 72 72 71 71 71 72 72 69 70 71 71 71 70 69 68 70 70 68 67
67 68 67 68 70 69 70 70 67 58 48 48 49 50 49 52 48 49 49 50 50 51 71 72 72 72 72 72 72 71 70 69 68 71 70 70 70 70 69 69 68 67 68
73 62 74 76 76 75 74 73 74 71 68 67 50 55 47 47 47 47 46 49 66 63 74 73 72 72 72 72 72 72 71 71 70 70 70 70 70 68 68 68 69 66 66
71 74 78 78 77 74 76 76 77 76 75 74 71 54 51 45 46 48 47 65 71 73 73 72 73 74 73 72 72 71 68 69 67 68 70 69 69 69 68 68 69 55 59
76 68 72 78 77 76 77 76 76 75 75 75 74 73 70 60 65 68 68 70 71 72 74 72 73 73 72 72 72 71 71 70 70 70 69 69 69 69 68 68 69 68 69
79 76 71 78 77 77 77 76 77 77 76 76 77 73 60 71 72 73 73 72 72 73 72 72 72 71 71 70 70 71 71 71 72 70 70 69 68 68 68 69 69 70 70
80 78 76 76 77 76 77 77 77 77 77 77 77 70 51 72 74 74 73 73 74 73 75 72 72 73 73 73 71 71 71 72 73 72 70 70 69 69 69 69 69 70 70
79 79 77 77 76 70 75 77 75 77 77 77 77 77 72 73 74 74 74 75 75 74 74 73 73 73 75 74 74 73 72 73 74 73 70 69 69 69 68 68 69 69 68
78 77 77 76 75 75 75 76 76 66 76 76 76 76 76 75 75 75 75 76 75 75 76 74 73 73 73 73 73 74 73 73 74 72 68 68 68 67 68 68 69 68 69
77 77 76 76 74 74 75 77 76 76 76 76 76 76 77 76 76 76 77 76 75 75 75 75 75 73 72 72 72 73 55 50 63 45 70 68 67 66 67 69 69 69 69
73 68 65 68 72 73 74 75 74 74 75 76 76 77 77 76 77 77 77 77 75 75 75 76 75 74 73 74 73 59 37 39 55 37 64 68 68 68 69 69 68 68 68
MSLP
1010.64 1011.11 1011.53 1012.37 1012.71 1013.04 1013.19 1013.49 1013.60 1013.71 1013.81 1013.71 1013.72 1013.66 1013.96 1014.08 1014.34 1014.50 1014.63 1014.50 1014.68 1014.63 1014.49 1014.57 1014.88 1014.82 1014.49 1014.38 1014.81 1014.75 1014.46 1014.39 1014.11 1013.57 1013.62 1014.25 1015.13 1015.16 1014.73 1014.69 1014.78 1014.73 1014.54
1010.26 1010.94 1011.51 1012.09 1012.48 1012.49 1012.78 1013.07 1013.25 1013.41 1013.57 1013.61 1013.70 1013.78 1013.94 1014.26 1014.38 1014.44 1014.43 1014.34 1014.63 1014.77 1014.61 1014.53 1014.43 1014.59 1014.59 1014.60 1014.45 1014.31 1014.10 1014.02 1014.16 1013.96 1013.71 1013.64 1014.31 1014.57 1014.58 1014.58 1014.27 1013.71 1013.40
1010.30 1010.64 1011.39 1011.91 1012.03 1012.41 1012.83 1013.18 1013.59 1013.80 1013.88 1013.79 1013.85 1013.92 1013.99 1014.30 1014.39 1014.42 1014.51 1014.47 1014.46 1014.63 1014.54 1014.51 1014.46 1014.60 1014.74 1014.68 1014.80 1014.77 1014.71 1014.78 1014.89 1014.74 1014.15 1014.32 1014.12 1013.86 1013.83 1013.91 1013.89 1013.52 1013.29
1010.21 1010.54 1011.27 1011.63 1012.07 1012.60 1013.14 1013.42 1013.65 1013.92 1014.18 1014.29 1014.31 1014.28 1014.40 1014.49 1014.50 1014.50 1014.43 1014.43 1014.22 1014.20 1014.42 1014.45 1014.38 1014.49 1014.71 1014.82 1014.91 1014.90 1015.00 1014.94 1015.01 1015.03 1014.92 1014.74 1014.71 1014.46 1014.57 1014.45 1013.96 1013.78 1013.47
1010.47 1010.74 1011.35 1011.78 1012.36 1012.89 1013.43 1013.80 1014.00 1014.16 1014.35 1014.51 1014.50 1014.63 1014.76 1014.64 1014.98 1015.15 1014.70 1014.60 1014.63 1014.51 1014.56 1014.58 1014.63 1015.29 1015.39 1015.28 1014.90 1014.94 1014.98 1014.94 1014.93 1014.85 1014.67 1014.35 1014.01 1013.75 1014.24 1014.19 1014.10 1013.51 1013.31
1011.00 1011.49 1012.06 1012.56 1012.64 1013.11 1013.63 1014.09 1014.34 1014.59 1014.78 1014.79 1014.74 1014.95 1015.14 1014.96 1016.26 1016.07 1015.71 1015.01 1014.97 1014.86 1014.77 1014.76 1014.96 1015.15 1015.19 1015.47 1015.50 1015.46 1015.42 1015.01 1014.80 1014.33 1013.64 1013.31 1013.30 1013.45 1013.03 1013.00 1012.65 1012.42 1011.79
1011.65 1012.15 1012.63 1012.95 1013.13 1013.14 1013.76 1014.21 1014.54 1014.74 1014.96 1015.17 1015.22 1015.20 1015.60 1016.05 1016.63 1016.46 1016.13 1015.11 1015.23 1015.21 1015.27 1015.23 1015.08 1014.78 1015.47 1015.57 1015.55 1015.52 1015.31 1015.20 1015.12 1014.82 1014.42 1014.15 1013.96 1013.82 1013.70 1013.60 1013.32 1012.95 1012.34
1011.60 1012.16 1012.70 1013.38 1013.50 1013.78 1013.85 1014.30 1014.83 1015.06 1015.06 1015.11 1015.48 1015.69 1015.91 1016.99 1017.04 1016.77 1016.46 1015.86 1015.55 1015.69 1015.72 1015.65 1015.71 1015.95 1016.83 1016.94 1016.28 1015.25 1014.83 1014.68 1014.56 1014.54 1014.29 1014.32 1014.33 1014.52 1014.40 1014.04 1013.93 1013.58 1012.83
1011.92 1012.50 1013.48 1013.64 1013.77 1014.01 1014.40 1014.41 1014.96 1015.14 1015.18 1015.15 1015.55 1015.98 1016.35 1017.01 1017.30 1017.13 1016.77 1016.01 1015.69 1015.80 1015.81 1016.09 1016.48 1016.63 1017.27 1017.13 1016.65 1015.94 1015.56 1015.02 1014.25 1014.74 1014.91 1014.88 1014.97 1015.01 1015.04 1014.55 1013.63 1012.67 1011.66
1011.06 1011.47 1012.68 1012.99 1014.09 1013.37 1015.05 1014.76 1015.09 1015.19 1015.14 1015.26 1015.70 1016.26 1016.81 1017.00 1017.58 1017.52 1017.43 1016.23 1015.72 1015.53 1015.72 1016.01 1017.01 1017.30 1017.58 1017.37 1016.78 1015.87 1015.32 1014.58 1014.36 1014.18 1014.53 1014.20 1014.24 1013.78 1013.99 1013.92 1013.37 1012.63 1011.71
1011.73 1012.23 1013.05 1013.71 1013.83 1013.18 1015.18 1015.37 1015.37 1015.38 1015.55 1015.73 1015.89 1016.34 1016.79 1017.28 1017.53 1017.72 1017.75 1016.93 1016.30 1015.77 1015.44 1015.47 1016.30 1017.61 1017.76 1017.49 1017.06 1016.28 1016.33 1016.19 1015.15 1014.64 1013.97 1013.42 1013.29 1013.21 1013.68 1013.79 1013.60 1013.36 1012.66
1012.12 1012.83 1013.65 1014.16 1014.44 1014.32 1014.92 1015.58 1015.78 1015.84 1015.93 1016.00 1015.91 1015.98 1016.43 1016.92 1017.58 1017.76 1017.84 1017.75 1017.69 1016.50 1016.10 1016.16 1017.04 1017.80 1017.88 1017.73 1017.19 1017.20 1016.68 1016.12 1015.21 1014.67 1014.26 1014.08 1013.88 1013.58 1013.18 1013.28 1013.45 1012.89 1012.80
1012.09 1013.05 1013.85 1014.29 1014.62 1014.47 1014.94 1015.60 1015.85 1015.79 1015.35 1015.26 1015.19 1015.19 1015.53 1016.09 1016.53 1017.40 1017.67 1017.70 1017.69 1016.97 1016.86 1017.35 1017.63 1017.70 1017.45 1017.52 1017.24 1016.90 1016.22 1015.38 1014.94 1014.51 1014.41 1014.26 1014.11 1014.01 1013.92 1013.37 1012.97 1012.73 1012.40
1011.85 1012.90 1013.79 1014.07 1014.36 1014.64 1015.11 1015.44 1015.11 1014.80 1014.72 1014.78 1015.12 1015.19 1015.37 1015.89 1016.21 1016.67 1016.83 1016.94 1017.23 1017.16 1017.07 1016.82 1017.18 1017.25 1017.02 1016.85 1016.46 1016.35 1016.01 1016.02 1015.48 1015.19 1015.14 1014.95 1014.54 1014.08 1013.41 1013.36 1013.02 1012.98 1012.66
1011.90 1012.88 1013.48 1013.81 1014.12 1014.51 1014.56 1014.93 1014.63 1014.66 1014.87 1014.97 1015.06 1015.33 1015.66 1016.04 1017.25 1018.03 1018.09 1017.54 1017.61 1017.49 1017.26 1016.21 1016.04 1016.04 1016.17 1015.86 1015.76 1016.06 1015.95 1015.81 1015.60 1015.32 1015.32 1015.05 1014.92 1014.19 1013.84 1013.76 1013.40 1013.32 1012.80
1012.04 1012.82 1013.37 1013.78 1013.80 1014.31 1014.60 1015.11 1015.53 1015.62 1015.99 1016.10 1016.15 1016.14 1016.79 1017.42 1018.07 1018.39 1018.59 1018.50 1018.21 1017.86 1016.88 1016.12 1015.94 1015.97 1016.07 1016.17 1015.94 1015.86 1015.91 1016.18 1016.24 1015.41 1015.18 1015.02 1015.12 1014.70 1014.45 1013.83 1013.72 1013.48 1013.05
1011.40 1012.15 1013.00 1013.18 1013.33 1013.51 1013.69 1014.08 1014.91 1016.33 1016.35 1016.50 1016.82 1017.07 1017.25 1017.63 1018.17 1018.39 1018.46 1018.41 1018.01 1017.71 1016.57 1016.34 1016.23 1016.22 1016.25 1016.12 1016.14 1016.20 1016.03 1016.41 1016.53 1015.91 1015.47 1015.27 1015.26 1014.93 1014.24 1013.84 1013.89 1013.65 1013.12
1011.10 1011.68 1011.82 1011.84 1012.08 1012.58 1013.07 1013.39 1013.76 1014.57 1015.15 1015.89 1016.86 1017.12 1017.63 1017.88 1018.17 1018.28 1018.28 1018.14 1017.11 1016.97 1016.21 1016.17 1016.20 1016.37 1016.29 1016.07 1016.24 1016.41 1016.27 1016.09 1016.25 1015.91 1015.57 1015.45 1015.44 1015.18 1014.45 1014.14 1013.79 1013.68 1013.26
1010.78 1011.04 1011.03 1011.26 1011.52 1011.79 1012.20 1012.56 1012.84 1013.33 1013.63 1014.03 1015.26 1017.12 1017.31 1017.57 1017.96 1018.10 1017.97 1017.18 1016.11 1015.84 1015.87 1015.97 1016.26 1016.19 1016.09 1016.20 1016.35 1016.46 1016.52 1016.36 1016.60 1016.08 1015.81 1015.77 1015.57 1015.07 1014.54 1014.28 1013.72 1013.62 1013.39
1010.41 1010.59 1010.86 1010.94 1011.25 1011.54 1011.73 1012.06 1012.33 1012.60 1012.96 1013.31 1013.80 1014.36 1015.59 1017.04 1016.76 1016.24 1016.33 1015.82 1015.66 1015.49 1015.55 1015.83 1015.98 1016.20 1015.94 1016.18 1016.15 1016.03 1015.99 1016.06 1015.98 1016.03 1016.06 1015.84 1015.57 1015.07 1014.54 1014.02 1013.61 1013.33 1012.91
1009.64 1010.54 1010.92 1010.77 1010.83 1011.11 1011.32 1011.60 1011.71 1011.83 1012.22 1012.55 1012.78 1013.33 1014.05 1014.90 1014.62 1014.60 1014.81 1015.03 1015.14 1015.01 1015.27 1015.49 1015.68 1015.81 1015.78 1015.88 1015.72 1015.57 1015.69 1015.80 1015.85 1016.10 1016.00 1015.75 1015.48 1014.94 1014.60 1014.10 1013.62 1013.24 1012.89
1009.10 1009.68 1010.49 1010.48 1010.61 1010.84 1010.99 1011.17 1011.34 1011.54 1011.79 1011.98 1012.19 1013.35 1014.47 1014.54 1014.00 1014.08 1014.36 1014.56 1014.55 1015.00 1014.90 1015.28 1015.51 1015.39 1015.17 1015.15 1015.37 1015.37 1015.19 1015.23 1015.54 1015.85 1015.81 1015.58 1015.18 1014.80 1014.59 1013.99 1013.60 1013.18 1012.78
1008.97 1009.32 1009.88 1010.11 1010.28 1010.55 1010.89 1010.97 1011.14 1011.20 1011.27 1011.64 1012.06 1012.53 1013.71 1013.67 1013.50 1013.57 1013.67 1013.76 1013.96 1014.44 1014.50 1014.97 1015.03 1014.81 1014.67 1014.75 1014.80 1014.86 1014.83 1014.87 1015.27 1015.67 1015.56 1015.31 1014.98 1014.70 1014.70 1013.97 1013.54 1013.13 1012.82
1009.02 1009.29 1009.54 1010.01 1010.31 1010.51 1010.79 1010.93 1011.01 1011.10 1010.91 1011.30 1011.81 1012.22 1012.39 1012.69 1012.80 1012.78 1013.03 1013.25 1013.63 1013.92 1014.04 1014.35 1014.56 1014.50 1014.43 1014.64 1014.48 1014.58 1014.72 1014.87 1015.11 1015.29 1015.57 1015.35 1015.04 1014.63 1014.46 1014.00 1013.34 1013.15 1012.82
1008.92 1009.23 1009.49 1009.80 1010.25 1010.59 1010.65 1010.58 1010.68 1010.84 1011.23 1011.13 1011.41 1011.61 1011.73 1012.02 1012.07 1012.16 1012.53 1012.85 1013.22 1013.44 1013.48 1013.60 1013.66 1013.82 1013.97 1014.15 1014.28 1014.23 1014.86 1015.22 1015.40 1015.75 1015.17 1015.23 1015.15 1014.78 1014.42 1013.74 1013.21 1013.03 1012.72
1009.63 1009.92 1010.27 1010.13 1010.22 1010.38 1010.36 1010.18 1010.35 1010.67 1010.77 1010.81 1010.80 1010.97 1011.03 1011.20 1011.45 1011.66 1011.84 1012.15 1012.67 1012.85 1012.77 1012.70 1012.74 1012.90 1013.14 1013.25 1013.42 1013.67 1014.58 1015.06 1015.26 1015.75 1015.36 1014.78 1014.55 1014.16 1013.75 1013.31 1013.06 1012.76 1012.43
Wind_Speed
11 10 8 5 6 5 5 3 2 3 3 1 3 6 5 7 8 9 9 8 10 10 10 7 9 9 8 7 7 6 7 6 7 6 5 4 5 7 7 7 7 8 9
11 10 9 8 9 10 8 6 5 4 2 2 2 4 5 6 5 6 7 6 8 9 9 10 11 9 11 9 8 9 7 8 8 9 7 6 7 8 9 9 9 10 10
11 10 10 10 8 7 7 7 6 5 4 4 4 4 3 2 3 4 5 5 6 6 7 8 9 8 9 7 7 7 8 7 6 8 10 6 8 8 8 10 10 11 10
11 12 11 10 10 9 7 6 6 5 3 3 3 2 3 3 3 3 3 4 4 2 2 3 5 6 7 7 7 7 7 7 7 6 7 7 6 8 6 7 8 6 9
11 11 11 10 10 9 7 5 5 4 5 3 2 2 0 1 8 9 5 4 5 5 4 5 6 6 6 5 3 0 3 4 4 4 6 6 7 6 7 5 7 8 7
12 13 12 10 11 9 7 5 5 5 4 4 4 4 1 6 8 8 9 4 4 5 5 5 5 7 5 3 2 2 5 6 8 8 9 9 9 9 8 8 9 9 10
12 11 10 9 9 10 8 6 5 4 4 3 3 2 5 6 10 9 9 5 6 5 5 6 7 6 3 8 3 6 9 7 7 8 10 10 11 10 9 10 10 10 10
15 13 10 8 8 7 8 6 5 3 4 4 3 3 5 7 12 11 10 4 3 4 5 6 6 6 11 11 12 9 8 8 8 7 7 8 9 10 9 10 11 11 12
13 13 8 7 7 6 5 6 4 4 5 5 5 5 5 6 11 12 11 5 4 4 2 4 6 5 7 7 7 8 8 9 4 5 5 7 10 10 8 8 11 12 12
13 12 12 11 5 9 4 5 4 5 4 6 6 6 3 6 11 11 11 6 5 5 4 4 11 8 7 6 8 8 8 8 7 8 10 11 14 13 16 11 9 11 11
5 7 8 6 8 11 4 4 5 5 6 6 6 5 5 5 7 8 9 6 6 5 3 1 7 11 6 6 7 6 7 9 9 9 7 7 8 7 6 3 4 6 9
12 12 10 4 3 7 8 5 5 6 7 5 5 5 5 4 4 8 5 6 7 5 4 4 5 6 2 4 7 8 8 10 4 4 4 4 5 5 6 6 10 10 8
12 11 9 9 5 6 8 7 6 7 5 7 6 4 4 3 4 8 3 0 2 5 6 6 3 6 9 8 3 8 10 4 5 5 5 6 6 6 8 7 8 8 11
14 13 12 11 10 9 7 8 8 7 6 5 4 3 4 3 3 3 1 5 8 7 8 6 2 4 3 3 6 5 4 5 5 6 7 7 5 5 5 6 7 7 8
13 11 9 7 8 7 6 4 5 3 2 5 4 3 2 3 6 6 6 5 6 6 8 2 1 2 2 3 4 4 5 4 5 4 4 5 6 5 6 6 6 6 6
12 9 8 8 9 8 7 6 12 9 8 9 11 6 7 10 7 3 1 3 5 6 5 1 2 2 3 4 4 4 4 5 6 5 5 5 5 6 6 5 5 5 6
13 13 10 10 10 8 8 8 9 4 8 7 6 7 10 11 6 3 2 4 6 6 5 2 1 1 2 2 3 4 4 5 4 5 5 5 6 5 5 6 6 6 7
10 7 9 10 10 9 9 9 9 9 9 8 5 4 7 8 6 4 2 4 6 7 1 1 2 1 1 2 2 3 3 4 4 5 5 5 5 6 6 6 5 7 7
9 9 9 8 8 8 8 8 7 7 7 7 9 5 8 7 6 5 4 7 4 3 3 3 3 2 1 0 1 2 4 4 4 5 4 5 4 5 5 5 6 3 5
9 6 7 8 8 8 7 7 7 7 7 7 7 8 11 9 8 8 8 4 5 4 3 4 3 2 2 2 2 2 3 2 3 4 4 4 4 5 5 6 6 7 7
7 8 8 7 7 7 7 8 7 7 6 6 7 4 8 8 6 4 4 4 5 4 3 4 3 4 4 4 3 3 3 3 2 3 3 3 4 5 5 5 6 6 6
7 9 10 8 7 7 7 6 6 7 7 7 6 10 10 7 6 5 5 5 5 5 3 3 5 5 4 3 4 5 5 4 2 2 3 3 3 4 5 5 6 6 7
7 8 9 8 7 6 6 7 6 7 7 6 6 7 8 8 7 6 5 5 4 5 5 6 6 6 5 5 5 5 6 4 1 2 3 4 4 4 6 6 7 7 8
7 8 8 8 8 7 8 9 8 6 6 7 7 6 6 8 8 7 5 5 5 6 7 7 7 9 6 6 5 5 5 4 3 3 3 4 5 2 6 6 7 9 9
7 8 8 8 8 9 9 9 8 8 9 8 8 8 8 8 7 7 7 8 7 7 9 8 7 9 11 11 10 9 8 8 6 4 4 6 7 7 8 7 7 9 10
5 2 4 5 9 10 10 8 8 9 10 9 9 8 7 7 8 8 8 8 8 10 10 9 9 11 11 11 12 5 11 10 9 9 8 8 8 8 8 9 12 10 12
Wind_Direction
184 174 162 170 173 160 173 179 152 148 207 205 216 228 217 218 218 211 216 226 215 225 245 214 218 245 238 226 227 243 249 238 254 259 193 211 235 258 277 255 242 237 229
168 166 162 166 174 161 158 151 144 85 99 100 135 191 194 224 232 233 238 248 230 227 230 244 227 218 232 247 249 243 265 249 248 249 271 262 214 248 265 270 269 270 266
170 171 161 164 156 132 126 120 107 93 71 67 60 30 41 75 205 213 252 253 256 254 255 244 247 241 249 264 251 251 248 248 250 257 268 273 276 267 268 247 251 256 264
176 162 160 161 144 140 132 132 127 119 118 107 81 68 56 66 57 46 50 34 359 23 285 265 262 268 270 271 268 263 266 265 262 262 274 286 299 301 281 285 281 284 294
166 154 155 142 132 134 131 129 124 136 122 124 121 85 36 313 30 351 344 336 335 326 342 341 82 45 60 41 312 29 300 259 253 259 260 258 264 270 268 259 264 272 267
156 154 147 147 139 132 130 129 125 123 105 99 113 115 76 66 14 6 340 323 317 300 305 313 300 184 162 140 80 329 325 276 273 283 279 275 290 278 280 293 292 297 296
147 143 146 146 144 139 135 136 133 129 117 104 94 101 79 69 25 15 350 324 319 348 312 313 305 75 326 325 205 229 235 218 244 281 276 280 293 287 295 289 281 295 287
146 142 142 156 143 142 144 142 148 158 151 136 124 113 115 67 32 19 346 318 348 344 339 333 335 1 44 354 326 309 299 295 264 267 286 307 317 346 323 305 305 286 269
139 128 136 145 152 142 158 139 147 163 160 145 116 124 113 83 37 21 345 304 8 315 328 341 340 91 32 358 308 303 302 293 257 192 239 266 278 279 267 286 274 279 284
156 157 159 157 177 125 185 153 161 192 157 122 146 121 73 112 55 28 359 311 305 304 267 158 73 40 13 338 298 287 284 286 305 309 293 254 233 236 221 235 270 271 279
182 157 156 160 148 112 173 186 187 191 140 146 145 129 108 33 78 43 14 307 343 320 334 25 79 45 25 0 317 357 349 316 278 269 308 319 3 20 16 12 327 315 301
158 135 121 104 147 140 149 179 181 175 154 159 149 183 140 117 63 85 36 20 351 313 345 24 62 27 341 10 323 341 291 274 293 299 287 289 308 311 311 319 311 311 305
153 144 145 151 165 141 162 182 194 204 183 183 178 157 129 116 131 140 149 144 237 288 20 48 340 285 267 207 73 309 285 345 332 320 340 342 341 343 326 326 321 327 315
160 159 158 162 158 156 175 194 205 189 184 160 155 147 119 115 83 24 108 175 201 215 170 179 38 324 267 266 239 238 24 10 351 4 355 340 327 326 341 357 339 343 324
158 154 158 144 148 171 205 193 202 107 37 163 140 129 126 102 69 50 12 7 356 30 309 274 296 11 19 42 58 33 35 4 5 15 16 353 347 352 10 3 9 354 344
152 152 158 166 171 177 172 166 49 39 55 62 53 52 96 88 119 142 93 341 314 309 244 148 87 60 44 28 31 30 36 17 1 355 360 353 353 345 349 5 5 355 345
161 163 172 183 181 179 181 174 164 102 72 76 90 81 61 118 132 139 216 257 265 287 229 114 100 80 68 61 40 29 25 35 329 359 356 357 356 348 321 10 357 349 347
176 187 181 191 181 177 182 185 179 176 182 175 172 176 136 138 154 166 208 264 215 215 234 206 158 165 121 51 17 9 12 20 1 351 353 355 353 341 348 356 355 352 353
184 185 199 188 186 179 179 185 195 188 196 183 152 202 161 169 189 211 229 259 279 240 200 212 220 217 125 356 16 343 323 22 343 336 344 337 343 331 346 349 339 293 284
196 176 207 186 165 185 180 194 199 205 207 209 193 200 159 173 204 206 204 221 237 240 217 243 233 248 242 252 281 313 301 304 351 325 330 322 335 325 344 343 347 335 340
181 170 223 194 185 193 200 205 216 212 217 222 212 168 127 203 233 215 230 200 230 234 211 251 267 257 246 238 257 277 276 293 305 302 302 326 335 339 340 342 336 335 336
191 170 192 199 194 191 200 209 213 217 226 217 211 125 142 223 243 216 216 221 209 220 245 237 264 257 256 259 263 258 259 263 269 287 303 318 335 342 338 327 334 338 344
201 193 186 198 202 186 195 224 212 219 206 203 215 168 182 217 221 217 212 216 215 231 223 231 245 255 243 233 238 256 270 269 253 289 300 318 321 358 312 329 329 338 342
199 207 200 201 201 196 205 209 210 219 212 197 203 213 211 198 215 204 229 222 220 227 231 228 237 255 264 244 257 247 231 230 217 231 275 302 296 273 318 312 319 339 319
214 202 218 208 209 210 208 232 205 203 209 216 207 216 213 219 226 219 229 217 229 238 235 240 244 246 240 237 251 263 104 130 253 7 262 266 278 295 286 297 317 315 315
214 214 200 217 207 210 230 221 228 217 216 215 221 229 227 233 233 242 236 232 225 236 241 240 240 235 241 236 231 193 147 179 208 226 261 259 268 277 289 302 310 308 302